Location: Newark
(33.9035°S, 18.4112°E)
Time: 12:27:22
(UTC+00:00)

LightSail 2 - Visible Passes

Search period start: 26 January 2020 00:00
Search period end: 05 February 2020 00:00
Orbit: 704 x 719 km, 24.0° (Epoch: 25 January)

Date Brightness Start Highest point End Pass type
(mag) Time Alt. Az. Time Alt. Az. Time Alt. Az.
26 Jan 6.6 02:15:50 22° N 02:16:10 22° N 02:20:06 10° ENE visible
27 Jan 7.5 01:20:55 12° NE 01:20:55 12° NE 01:21:26 10° ENE visible
27 Jan 6.3 02:59:51 16° NW 03:02:48 27° N 03:07:07 10° ENE visible
28 Jan 6.4 02:04:58 25° NNE 02:04:58 25° NNE 02:08:41 10° ENE visible
29 Jan 7.7 01:10:08 10° ENE 01:10:08 10° ENE 01:10:11 10° ENE visible
29 Jan 6.3 02:49:04 21° NW 02:51:05 27° N 02:55:24 10° NE visible
30 Jan 6.6 01:54:18 23° NNE 01:54:18 23° NNE 01:57:04 10° ENE visible
30 Jan 6.6 03:33:43 10° WNW 03:37:41 22° N 03:41:37 10° NE visible
31 Jan 6.3 02:38:32 24° NNW 02:39:19 25° N 02:43:29 10° NE visible
01 Feb 7.2 01:43:54 16° NE 01:43:54 16° NE 01:45:15 10° NE visible
01 Feb 6.8 03:22:52 11° NW 03:25:51 17° NNW 03:29:13 10° NNE visible
02 Feb 6.7 02:28:20 20° N 02:28:20 20° N 02:31:18 10° NE visible
03 Feb 7.0 03:12:53 12° NNW 03:13:57 12° NNW 03:16:03 10° N visible
04 Feb 7.4 02:18:34 10° NNE 02:18:34 10° NNE 02:18:39 10° NNE visible
